Tracking 29892 objects as of 21-Nov-2024
HD Live streaming from Space Station
objects crossing your sky now

TDRS 6

Track TDRS 6 now!
TDRS 6 is classified as:


NORAD ID: 22314
Int'l Code: 1993-003B
Perigee: 35,753.5 km
Apogee: 35,836.4 km
Inclination: 14.2 °
Period: 1,436.2 minutes
Semi major axis: 42165 km
RCS: 25.5943 m2 (large)
Launch date: January 13, 1993
Source: United States (US)
Launch site: AIR FORCE EASTERN TEST RANGE (AFETR)

Tracking and communications with space shuttle, other missions; leased access to C-band by Americom.
Your satellite tracking list
Your tracking list is empty




NASA's NSSDC Master Catalog

Two Line Element Set (TLE):
1 22314U 93003B   24325.76828903 -.00000298  00000-0  00000-0 0  9996
2 22314  14.1682   1.2665 0009829 190.6916  98.9704  1.00267613116658
Source of the keplerian elements: AFSPC